[[{"header":{"parameterUnit":"m.s-1","parameterCategory":1,"la1":30.2991,"la2":30.254,"lo1":-89.0895,"lo2":-89.0444,"dy":0.0017,"dx":0.0017,"nx":28,"ny":28,"refTime":"2024-08-29T03:00:00:Z","depth":0,"parameterNumber":2,"parameterNumberName":"U-component_of_WINDS"},"data":[0,0,0,0,0,0,0,0,0,0,0,0,0,0,0,0,0,0,0,0,0,0,0,0,0,0,0,0,0,0,0,0,0,0,0,0,0,0,0,0,0,0,0,0,0,0,0,0,0,0,0,0,0,0,0,0,0,0,-0.0027,-0.0026,0,0.005,0.0051,0.0052,0.009,0.009,0.009,0.009,0.0165,0.0167,0.0169,0,0,0,0,0,0,0,0,0,0,0,0,0,-0.0146,-0.0144,-0.0027,-0.0026,-0.0025,0.005,0.0051,0.0052,0.009,0.009,0.009,0.009,0.0164,0.0166,0.0169,0,0,0,0,0,0,0,0,0,0,0,0,0,-0.0084,-0.0143,-0.0027,0.0003,0.0006,0.005,0.0051,0.0053,0.009,0.009,0.009,0.009,0.0163,0.0166,0.0169,0.0188,0,0,0.0178,0.018,0,0,0,0,0,0,0,0,-0.0087,-0.008,-0.0002,0.0001,0.0005,0.0061,0.0037,0.0098,0.009,0.0058,0.009,0.009,0.013,0.0136,0.015,0.0191,0.0195,0.0179,0.018,0.0182,0.0183,0,0,0,0,0,0,0,-0.0092,-0.0083,0.0004,-0.0001,0.0003,0.0011,0.002,0.0049,0.0093,0.0061,0.0064,0.0072,0.0132,0.0147,0.0152,0.0196,0.0179,0.0181,0.0183,0.0184,0.0256,0.0256,0,0,0,0,0,0,-0.01,-0.0087,0.0001,0.0006,-0.0042,0.0013,0.0023,0.0043,0.0093,0.01,0.0072,0.0074,0.0142,0.0148,0.0155,0.018,0.0182,0.0185,0.0186,0.0256,0.0256,0.0256,0,0,0,0,0,0,-0.0103,-0.0093,-0.0002,-0.0039,-0.0027,0.0015,0.0037,0.0044,0.0059,0.0102,0.0109,0.008,0.0142,0.015,0.018,0.0183,0.0186,0.0189,0.0256,0.0256,0.0256,0.023,0,0,0,0,0,0,-0.0107,-0.0094,-0.0086,-0.0039,-0.0025,0.0023,0.0037,0.0046,0.0065,0.0068,0.0111,0.0118,0.0143,0.0175,0.0183,0.0187,0.0191,0.0256,0.0256,0.0256,0.0231,0.023,0.0228,0,0,0,0,0,-0.0111,-0.0097,-0.0085,-0.0075,-0.0014,0.0023,0.0031,0.006,0.0065,0.0073,0.01,0.0116,0.0181,0.0178,0.0186,0.0192,0.0256,0.0256,0.0256,0.0232,0.023,0.0228,0,0,0,0,0,0,-0.0145,-0.009,-0.0077,-0.0047,-0.0017,0.0029,0.0041,0.0058,0.0086,0.0087,0.0121,0.0131,0.0156,0.0177,0.0172,0.0213,0.022,0.0222,0.0198,0.0197,0.0196,0.019,0.0193,0,0,0,0,0,-0.0149,-0.0122,-0.0076,-0.0054,-0.004,-0.0002,0.0015,0.0035,0.0067,0.0079,0.0109,0.0138,0.0165,0.0182,0.0209,0.0234,0.0244,0.0242,0.0241,0.024,0.0241,0.0255,0.0255,0.0257,0.0257,0.0257,0,0,-0.0157,-0.0123,-0.0109,-0.006,-0.0035,-0.0009,0.0008,0.0034,0.0053,0.0083,0.0113,0.0135,0.017,0.0197,0.021,0.0215,0.0243,0.024,0.0238,0.0241,0.0255,0.0255,0.0255,0.0257,0.0257,0.0257,0,0,-0.0158,-0.013,-0.0109,-0.0083,-0.0044,-0.0019,-0.0014,0.003,0.0046,0.0077,0.01,0.0122,0.0168,0.0192,0.021,0.0217,0.0233,0.0225,0.0218,0.0232,0.0231,0.0231,0.0234,0.0234,0.0226,0.0226,0.0226,0,-0.0173,-0.0133,-0.01,-0.0075,-0.0054,-0.0025,-0.0004,0.0019,0.0064,0.0077,0.0082,0.0141,0.0166,0.0199,0.0201,0.0215,0.0221,0.0221,0.0229,0.0229,0.023,0.0233,0.0234,0.0225,0.0225,0.0225,0.0225,0,-0.0153,-0.0126,-0.0113,-0.0068,-0.0047,-0.0024,0.0011,0.0029,0.0047,0.007,0.0101,0.0132,0.0167,0.0176,0.0193,0.0211,0.0213,0.0223,0.0231,0.0228,0.0231,0.0232,0.0223,0.0224,0.0224,0.0224,0,0,-0.0174,-0.0111,-0.0107,-0.0086,-0.0041,-0.002,0.0004,0.0039,0.0053,0.0083,0.0103,0.0142,0.0151,0.0172,0.0192,0.0204,0.0208,0.0213,0.0214,0.0211,0.0229,0.0221,0.0222,0.0218,0.0219,0.0219,0.0226,0,-0.0169,-0.0123,-0.0093,-0.006,-0.0034,-0.0006,0.0015,0.0044,0.0067,0.0091,0.0115,0.0142,0.0153,0.0165,0.0178,0.0204,0.0212,0.0204,0.0237,0.0237,0.0227,0.0224,0.0215,0.0221,0.0227,0.0228,0.0228,0,-0.0157,-0.0126,-0.009,-0.0047,-0.0035,-0.0017,0.0017,0.004,0.0074,0.0089,0.0112,0.0133,0.0158,0.0164,0.0198,0.0192,0.0207,0.0222,0.0223,0.0227,0.0232,0.0227,0.0223,0.0224,0.023,0.023,0.023,0,-0.0176,-0.0125,-0.0097,-0.008,-0.0029,-0.0017,0.0004,0.0038,0.0056,0.0086,0.0098,0.0129,0.0146,0.0169,0.0197,0.0199,0.0229,0.0237,0.0241,0.0241,0.0247,0.0246,0.0244,0.0256,0.0256,0.0256,0.0256,0,-0.0173,-0.0152,-0.0104,-0.0087,-0.0063,-0.0029,-0.0007,0.0017,0.0046,0.0068,0.0093,0.0112,0.0148,0.0172,0.0193,0.0218,0.0226,0.0238,0.0244,0.0236,0.0235,0.0246,0.0247,0.0256,0.0256,0.0256,0.0256,0,-0.019,-0.0157,-0.0124,-0.0078,-0.0066,-0.0051,-0.0012,0.0005,0.0029,0.0056,0.0064,0.0101,0.013,0.016,0.0199,0.0214,0.0238,0.0245,0.0227,0.023,0.0233,0.0232,0.0239,0.0242,0.0251,0.0251,0.0251,0,-0.019,-0.0173,-0.0125,-0.0108,-0.0087,-0.006,-0.004,-0.0007,0.0012,0.0051,0.0063,0.0094,0.0121,0.0165,0.0195,0.0224,0.0233,0.0234,0.0238,0.0229,0.0233,0.0232,0.0233,0.0232,0.0232,0.0232,0.0231,0,-0.0195,-0.0179,-0.0151,-0.0116,-0.0093,-0.0065,-0.0036,-0.0024,0.0014,0.0034,0.0065,0.0085,0.0125,0.0155,0.0188,0.0209,0.0226,0.023,0.0233,0.0225,0.0214,0.022,0.0223,0.023,0.023,0.023,0.023,0.023,-0.0203,-0.0187,-0.015,-0.0119,-0.0094,-0.0068,-0.0049,-0.0022,0.0005,0.0041,0.0058,0.0088,0.0121,0.0167,0.0187,0.021,0.0216,0.0219,0.022,0.0221,0.0219,0.021,0.0217,0.0217,0.0217,0.0217,0.0217,0,-0.0206,-0.0181,-0.0153,-0.0113,-0.0089,-0.0073,-0.0041,-0.0022,0.0005,0.0034,0.006,0.0094,0.0124,0.0156,0.0187,0.0199,0.0208,0.0206,0.0206,0.021,0.0213,0.0207,0.0199,0.0199,0.0199,0.0199,0.0199,0.0199,-0.0205,-0.0176,-0.0156,-0.0115,-0.009,-0.0059,-0.0042,-0.0018,0.0006,0.0044,0.0069,0.009,0.0121,0.0154,0.0181,0.019,0.02,0.0196,0.0206,0.0208,0.021,0.0211,0.0206,0.0198,0.0198,0.0202,0.0202,0.0202]},{"header":{"parameterUnit":"m.s-1","parameterCategory":1,"la1":30.2991,"la2":30.254,"lo1":-89.0895,"lo2":-89.0444,"dy":0.0017,"dx":0.0017,"nx":28,"ny":28,"refTime":"2024-08-29T03:00:00:Z","depth":0,"parameterNumber":3,"parameterNumberName":"V-component_of_WINDS"},"data":[0,0,0,0,0,0,0,0,0,0,0,0,0,0,0,0,0,0,0,0,0,0,0,0,0,0,0,0,0,0,0,0,0,0,0,0,0,0,0,0,0,0,0,0,0,0,0,0,0,0,0,0,0,0,0,0,0,0,0.0525,0.0521,0,0.0162,0.0157,0.0153,-0.0051,-0.0052,-0.0053,-0.0053,-0.0429,-0.0438,-0.0448,0,0,0,0,0,0,0,0,0,0,0,0,0,0.1037,0.1029,0.0525,0.0521,0.0516,0.0162,0.0157,0.0152,-0.0051,-0.0052,-0.0053,-0.0054,-0.0426,-0.0437,-0.0449,0,0,0,0,0,0,0,0,0,0,0,0,0,0.0758,0.1026,0.0526,0.0372,0.0355,0.0163,0.0157,0.0151,-0.0051,-0.0052,-0.0053,-0.0054,-0.0422,-0.0436,-0.045,-0.0518,0,0,-0.0493,-0.0499,0,0,0,0,0,0,0,0,0.0774,0.074,0.0399,0.0382,0.0363,0.01,0.0199,-0.0073,-0.0051,0.0103,-0.0053,-0.0054,-0.0253,-0.0281,-0.0347,-0.0535,-0.0551,-0.0494,-0.0503,-0.0509,-0.0513,0,0,0,0,0,0,0,0.0794,0.0754,0.0381,0.0395,0.0372,0.0319,0.0278,0.0147,-0.0065,0.0089,0.0074,0.0034,-0.0263,-0.0333,-0.0357,-0.0557,-0.0494,-0.0507,-0.0515,-0.0521,-0.0824,-0.0823,0,0,0,0,0,0,0.0839,0.0772,0.0393,0.037,0.057,0.0311,0.0265,0.0185,-0.0064,-0.0103,0.0035,0.0026,-0.0308,-0.0341,-0.0371,-0.047,-0.0509,-0.0522,-0.053,-0.0824,-0.0824,-0.0823,0,0,0,0,0,0,0.085,0.0807,0.0407,0.0566,0.0512,0.0303,0.0214,0.0178,0.0108,-0.0105,-0.0145,0.0003,-0.031,-0.0352,-0.0481,-0.0486,-0.0528,-0.0541,-0.0825,-0.0824,-0.0823,-0.0665,0,0,0,0,0,0,0.0866,0.0812,0.0786,0.0568,0.0504,0.0307,0.0214,0.0172,0.0085,0.0069,-0.0146,-0.0183,-0.0314,-0.0458,-0.0494,-0.0506,-0.0552,-0.0825,-0.0824,-0.0824,-0.067,-0.0659,-0.0649,0,0,0,0,0,0.0885,0.0846,0.0786,0.0742,0.0467,0.0307,0.027,0.0121,0.0086,0.0056,-0.0082,-0.0176,-0.0479,-0.047,-0.0512,-0.0528,-0.0825,-0.0824,-0.0824,-0.0675,-0.0661,-0.0649,0,0,0,0,0,0,0.1069,0.0814,0.0745,0.0635,0.0494,0.0273,0.0232,0.0141,0.0007,-0.0002,-0.0184,-0.0231,-0.0343,-0.0449,-0.0434,-0.0609,-0.0663,-0.067,-0.0535,-0.0524,-0.0513,-0.0486,-0.0564,0,0,0,0,0,0.1097,0.099,0.0772,0.0695,0.0628,0.0443,0.0367,0.0264,0.011,0.005,-0.0098,-0.0244,-0.0373,-0.0454,-0.0584,-0.0687,-0.0739,-0.0719,-0.0708,-0.0698,-0.0703,-0.0769,-0.0763,-0.082,-0.082,-0.082,0,0,0.1153,0.1,0.0944,0.0728,0.0607,0.0497,0.0394,0.0284,0.02,0.0032,-0.0099,-0.0212,-0.0388,-0.0504,-0.0563,-0.0596,-0.0699,-0.0697,-0.0687,-0.0698,-0.0767,-0.0761,-0.0756,-0.0819,-0.082,-0.082,0,0,0.1198,0.1074,0.0994,0.0875,0.0693,0.0569,0.055,0.0342,0.026,0.0126,-0.0003,-0.0106,-0.0323,-0.0445,-0.0534,-0.0538,-0.0631,-0.0575,-0.0519,-0.0581,-0.0576,-0.0573,-0.0577,-0.0576,-0.0579,-0.0579,-0.0578,0,0.129,0.1122,0.0964,0.086,0.0768,0.0611,0.0527,0.0419,0.0204,0.0142,0.0109,-0.0169,-0.0299,-0.0447,-0.0448,-0.0515,-0.0545,-0.0552,-0.0564,-0.0563,-0.0562,-0.0568,-0.0569,-0.0571,-0.0572,-0.0573,-0.0573,0,0.1243,0.1128,0.1085,0.0882,0.0784,0.0691,0.0517,0.0436,0.0341,0.022,0.0083,-0.0077,-0.0244,-0.0287,-0.0381,-0.0451,-0.0466,-0.0529,-0.0587,-0.0546,-0.0555,-0.0558,-0.056,-0.0563,-0.0565,-0.0567,0,0,0.1395,0.1104,0.1091,0.0995,0.0781,0.0688,0.0587,0.0424,0.0357,0.0213,0.0121,-0.006,-0.0121,-0.0223,-0.0333,-0.0387,-0.0383,-0.0445,-0.0452,-0.0429,-0.0473,-0.0425,-0.0425,-0.0445,-0.0446,-0.0447,-0.0459,0,0.1409,0.122,0.1074,0.0939,0.0829,0.0678,0.0588,0.0447,0.033,0.0218,0.0088,-0.0038,-0.0107,-0.017,-0.023,-0.037,-0.0394,-0.0371,-0.0535,-0.0539,-0.0488,-0.0429,-0.0379,-0.0382,-0.0463,-0.0464,-0.0465,0,0.1399,0.1261,0.1117,0.0911,0.0859,0.0782,0.0619,0.0515,0.0349,0.0268,0.0154,0.0039,-0.0078,-0.0124,-0.029,-0.0271,-0.0348,-0.0426,-0.0431,-0.0453,-0.05,-0.0452,-0.0387,-0.0387,-0.0471,-0.047,-0.047,0,0.1522,0.13,0.1183,0.1106,0.0865,0.0813,0.071,0.0543,0.0454,0.0311,0.025,0.0096,0.0011,-0.0108,-0.0262,-0.0281,-0.0413,-0.0471,-0.0486,-0.0482,-0.0508,-0.0505,-0.0456,-0.0553,-0.0553,-0.0553,-0.0553,0,0.1552,0.1468,0.1235,0.1163,0.1064,0.0895,0.0801,0.0684,0.0537,0.0438,0.0297,0.0207,0.001,-0.0106,-0.0227,-0.0348,-0.0385,-0.0456,-0.0487,-0.0444,-0.0435,-0.0498,-0.0502,-0.0554,-0.0554,-0.0554,-0.0553,0,0.1672,0.1513,0.1375,0.1157,0.11,0.1037,0.0849,0.0772,0.0647,0.0524,0.0485,0.0288,0.0145,-0.002,-0.0217,-0.03,-0.0412,-0.0457,-0.0355,-0.0374,-0.0381,-0.0378,-0.0371,-0.0381,-0.0468,-0.0467,-0.0466,0,0.1701,0.1633,0.1408,0.1332,0.1232,0.1112,0.1019,0.0849,0.0758,0.0563,0.0509,0.0355,0.0223,0.0,-0.0161,-0.0314,-0.0365,-0.0353,-0.0389,-0.0345,-0.0369,-0.0363,-0.0372,-0.0342,-0.034,-0.0339,-0.0338,0,0.1768,0.1691,0.1565,0.1409,0.1303,0.1172,0.1035,0.098,0.0781,0.0686,0.0538,0.0436,0.0233,0.0081,-0.0093,-0.0202,-0.0304,-0.0325,-0.0337,-0.0294,-0.0234,-0.0269,-0.033,-0.0325,-0.0326,-0.0327,-0.0328,-0.0328,0.1841,0.1772,0.1602,0.1464,0.1343,0.1218,0.1134,0.0999,0.0873,0.0695,0.0602,0.0455,0.0286,0.0043,-0.0063,-0.0183,-0.0217,-0.0233,-0.0238,-0.024,-0.0229,-0.0213,-0.0215,-0.0215,-0.0216,-0.0216,-0.0217,0,0.1898,0.1781,0.1656,0.1468,0.1359,0.1274,0.1117,0.103,0.0903,0.0756,0.0628,0.0457,0.0307,0.0134,-0.0027,-0.009,-0.0141,-0.0126,-0.0124,-0.0149,-0.0188,-0.0162,-0.0083,-0.0083,-0.0083,-0.0083,-0.0083,-0.0083,0.1915,0.1794,0.1697,0.1513,0.1395,0.1251,0.1168,0.105,0.0931,0.0746,0.0622,0.051,0.035,0.0176,0.0034,-0.0014,-0.0067,-0.0039,-0.0101,-0.0134,-0.0145,-0.0156,-0.0134,-0.0049,-0.0049,-0.0053,-0.0053,-0.0052]}]]